Location: Stockholm
(59.3330°N, 18.0500°E)
Time: 09:48:47
(UTC+01:00)

FENGYUN 1C DEB - Pass Details

Date: 14 December 2023
Orbit: 841 x 915 km, 98.8° (Epoch: 27 February)

Event Time Altitude Azimuth Distance (km) Brightness Sun altitude
Exits shadow 16:49:36 10° 26° (NNE) 2,486 ? -13.4°
Reaches altitude 10° 16:49:37 10° 26° (NNE) 2,486 ? -13.4°
Maximum altitude 16:50:02 10° 22° (NNE) 2,481 ? -13.5°
Drops below altitude 10° 16:50:28 10° 17° (NNE) 2,489 ? -13.5°
Sets 16:55:42 0° 335° (NNW) 3,446 ? -14.1°
